ONEWEB-0208 (48243 NORAD) Tracking and Keplerian Element Data

This shows tracking and keplerian element data for the satellite.

Feedback or suggestion? Click here.




ElementValue
Catalog48243
NameONEWEB-0208
Epoch Orbit195
Epoch Day173.83334491
Epoch Year2021
RAAN294.0624
Inclination87.6081
Eccentricity0.000982
Argument of Perigee67.5695
Mean Anonmoly120.0885
Mean Motion14.48832961
Decay Rate-0.00916054
L11 48243U 21031AK 21173.83334491 -.00916054 00000-0 -25826+0 0 9996
L22 48243 87.6081 294.0624 0009820 67.5695 120.0885 14.48832961 1952

Live tracking and technical data element details for ONEWEB-0208 (NORAD 48243). ONEWEB-0208 can be tracked NOW for your location showing map with azimuth and elevation plus other details from your city location.

Track the satellite on the map from your city or location and see movement details for azimuth, elevation, latitude, longitude, range, height, and movement on the map or in text.







IsCatalogInMostPopularTable: catalog: 48243, numindb: 24
Update: records affected: 1



GetName: 48243 ONEWEB-0208

Hit Count: updated at: Thu, 24 Jun 2021 02:59:40 GMT